Meriden, CT

1:53 AM EDT on March 24, 2017 (GMT -0400)
Meriden Markham Municipal

Weather History for KMMK - June, 2014

Change the Weather History Date:

Saturday, June 7, 2014

  Actual Average (KOXC) Record (KOXC)
Temperature  
Mean Temperature 66 °F -  
Max Temperature 82 °F 69 °F 91 °F (2008)
Min Temperature 51 °F 51 °F 39 °F (2007)
Cooling Degree Days 2    
Growing Degree Days 16 (Base 50)    
Moisture  
Dew Point 54 °F    
Average Humidity 65    
Maximum Humidity 96    
Minimum Humidity 35    
Precipitation  
Precipitation 0.00 in - - ()
Sea Level Pressure  
Sea Level Pressure 29.94 in    
Wind  
Wind Speed 2 mph (NW)    
Max Wind Speed 10 mph    
Max Gust Speed 17 mph    
Visibility 10 miles    
Events      
Averages and records for this station are not official NWS values.
T = Trace of Precipitation, MM = Missing Value Source: NWS Daily Summary

Daily Weather History Graph

Daily Weather History Graph

Search for Another Location

Airport or City:

Trip Planner

Search our weather history database for the weather conditions in past years. The results will help you decide how hot, cold, wet, or windy it might be!

Date:

Astronomy

Jun. 07, 2014 Rise Set
Actual Time 5:17 AM EDT 8:22 PM EDT
Civil Twilight 4:44 AM EDT 8:56 PM EDT
Nautical Twilight 4:01 AM EDT 9:39 PM EDT
Astronomical Twilight 3:10 AM EDT 10:30 PM EDT
Moon 2:34 PM EDT (6/7) 1:42 AM EDT (6/7)
Length of Visible Light 16h 12m
Length of Day
15h 05m
Waxing Gibbous, 67% of the Moon is Illuminated
Jun 7
Waxing Gibbous
Jun 13
Full
Jun 19
Last Quarter
Jun 27
New
Jul 5
First Quarter

Hourly Weather History & Observations

Time (EDT) Temp. Heat Index Dew Point Humidity Pressure Visibility Wind Dir Wind Speed Gust Speed Precip Events Conditions
12:53 AM 55.9 °F - 52.0 °F 87% 29.93 in 10.0 mi Calm Calm - N/A   Clear
1:53 AM 55.9 °F - 53.1 °F 90% 29.94 in 10.0 mi Calm Calm - N/A   Clear
2:53 AM 55.0 °F - 52.0 °F 89% 29.94 in 10.0 mi Calm Calm - N/A   Clear
3:53 AM 51.1 °F - 48.9 °F 92% 29.94 in 10.0 mi Calm Calm - N/A   Clear
5:53 AM 51.1 °F - 50.0 °F 96% 29.95 in 10.0 mi Calm Calm - N/A   Clear
6:53 AM 55.9 °F - 53.1 °F 90% 29.96 in 10.0 mi Calm Calm - N/A   Clear
9:53 AM 73.0 °F - 55.0 °F 53% 29.98 in 10.0 mi NW 10.4 mph - N/A   Clear
11:53 AM 79.0 °F - 54.0 °F 42% 29.96 in 10.0 mi North 6.9 mph - N/A   Clear
12:53 PM 80.1 °F 80.1 °F 55.0 °F 42% 29.95 in 10.0 mi Variable 3.5 mph - N/A   Partly Cloudy
1:53 PM 79.0 °F - 52.0 °F 39% 29.95 in 10.0 mi NW 6.9 mph - N/A   Mostly Cloudy
2:53 PM 82.0 °F 81.2 °F 53.1 °F 37% 29.93 in 10.0 mi North - - N/A   Scattered Clouds
3:53 PM 81.0 °F 80.4 °F 53.1 °F 38% 29.92 in 10.0 mi West 8.1 mph - N/A   Mostly Cloudy
4:53 PM 82.0 °F - 52.0 °F 35% 29.90 in 10.0 mi NW 9.2 mph 17.3 mph N/A   Mostly Cloudy
5:53 PM 82.0 °F - 52.0 °F 35% 29.90 in 10.0 mi WNW 6.9 mph - N/A   Scattered Clouds
6:53 PM 81.0 °F - 51.1 °F 35% 29.90 in 10.0 mi North 5.8 mph - N/A   Clear
7:53 PM 71.1 °F - 57.9 °F 63% 29.90 in 10.0 mi Calm Calm - N/A   Clear
8:53 PM 66.9 °F - 57.0 °F 70% 29.91 in 10.0 mi Calm Calm - N/A   Clear
9:53 PM 64.0 °F - 57.0 °F 78% 29.94 in 10.0 mi Calm Calm - N/A   Clear
10:53 PM 60.1 °F - 57.0 °F 90% 29.95 in 10.0 mi Calm Calm - N/A   Clear
11:53 PM 59.0 °F - 55.9 °F 90% 29.96 in 10.0 mi SSE 3.5 mph - N/A   Clear